KX4BI Weather Reports


time (UTC)temp
C
wind
direction
speed
KPH
gust
KPH
rain 1hr
cm
rain 24hr
cm
rain mn
cm
humidity
%
barometer
mb
20260906122513 22 124 0.0 1.6 0.03 0.05 0.05 92 1013.7
20260906122011 22 32 0.0 6.4 0.05 0.05 0.05 91 1013.8
20260906121526 22 31 1.6 6.4 0.05 0.05 0.05 91 1013.8
20260906121013 22 113 1.6 4.8 0.05 0.05 0.05 91 1013.7
20260906120515 22 272 1.6 4.8 0.05 0.05 0.05 91 1013.8
20260906120029 22 225 1.6 4.8 0.05 0.05 0.05 91 1013.7
20260906115506 22 113 1.6 6.4 0.05 0.05 0.05 91 1013.8
20260906115006 22 89 3.2 8.0 0.05 0.05 0.05 91 1014.0
20260906114515 22 86 0.0 8.0 0.05 0.05 0.05 91 1013.9
20260906114006 22 256 3.2 6.4 0.05 0.05 0.05 91 1013.9
20260906113508 22 263 3.2 6.4 0.05 0.05 0.05 91 1014.0
20260906113017 22 311 1.6 12.9 0.03 0.03 0.03 90 1014.1
20260906112509 22 96 6.4 12.9 0.03 0.03 0.03 90 1014.0
20260906112012 22 96 4.8 6.4 0.00 0.00 0.00 89 1014.0
20260906111529 22 312 0.0 3.2 0.00 0.00 0.00 89 1013.8
20260906111013 22 312 0.0 4.8 0.00 0.00 0.00 88 1013.6
20260906110515 22 326 1.6 9.7 0.00 0.00 0.00 88 1013.9
20260906110028 22 34 3.2 9.7 0.00 0.00 0.00 88 1014.1
20260906105515 22 338 3.2 9.7 0.00 0.00 0.00 88 1014.2
20260906105015 22 291 1.6 3.2 0.00 0.00 0.00 89 1014.2
20260906104531 22 305 1.6 1.6 0.00 0.00 0.00 88 1014.0
20260906104006 22 306 0.0 1.6 0.00 0.00 0.00 87 1014.0
20260906103506 23 359 0.0 1.6 0.00 0.00 0.00 85 1014.0
20260906103016 23 359 0.0 3.2 0.00 0.00 0.00 84 1014.0
20260906102511 23 340 0.0 3.2 0.00 0.00 0.00 84 1014.1
20260906102010 23 321 1.6 4.8 0.00 0.00 0.00 84 1014.3
20260906101520 23 347 1.6 4.8 0.00 0.00 0.00 84 1014.4
20260906101011 23 84 0.0 4.8 0.00 0.00 0.00 84 1014.2
20260906100514 23 108 0.0 4.8 0.00 0.00 0.00 83 1014.2
20260906100028 23 333 3.2 4.8 0.00 0.00 0.00 83 1014.4
20260906095514 23 15 0.0 4.8 0.00 0.00 0.00 83 1014.5
20260906095019 23 27 1.6 4.8 0.00 0.00 0.00 83 1014.5
20260906094530 23 352 1.6 4.8 0.00 0.00 0.00 84 1014.3
20260906094016 23 105 0.0 4.8 0.00 0.00 0.00 84 1014.2
20260906093514 23 84 1.6 4.8 0.00 0.00 0.00 84 1014.1
20260906093033 23 99 1.6 3.2 0.00 0.00 0.00 85 1014.1
20260906092506 23 18 0.0 3.2 0.00 0.00 0.00 85 1014.2
20260906092008 23 76 1.6 3.2 0.00 0.00 0.00 85 1014.1
20260906091517 23 76 1.6 3.2 0.00 0.00 0.00 85 1013.8
20260906091010 23 84 0.0 0.0 0.00 0.00 0.00 84 1013.7
20260906090511 23 84 0.0 3.2 0.00 0.00 0.00 83 1013.7
20260906090026 23 84 0.0 3.2 0.00 0.00 0.00 83 1013.9
20260906085515 23 68 0.0 3.2 0.00 0.00 0.00 82 1014.0
20260906085011 23 76 1.6 6.4 0.00 0.00 0.00 83 1013.9
20260906084528 23 75 3.2 8.0 0.00 0.00 0.00 83 1013.7
20260906084017 23 101 4.8 9.7 0.00 0.00 0.00 83 1013.6
20260906083517 23 99 4.8 12.9 0.00 0.00 0.00 82 1013.5
20260906083034 24 101 4.8 12.9 0.00 0.00 0.00 82 1013.5
20260906082516 24 105 8.0 12.9 0.00 0.00 0.00 83 1013.4
20260906082016 24 115 8.0 17.7 0.00 0.00 0.00 83 1013.5
20260906081515 24 101 6.4 19.3 0.00 0.00 0.00 82 1013.5
20260906081008 24 121 12.9 19.3 0.00 0.00 0.00 81 1013.6
20260906080511 24 96 9.7 12.9 0.00 0.00 0.00 83 1013.7
20260906080029 24 92 4.8 9.7 0.00 0.00 0.00 84 1013.7
20260906075512 24 72 3.2 9.7 0.00 0.00 0.00 84 1013.6
20260906075012 24 84 4.8 14.5 0.00 0.00 0.00 84 1013.5
20260906074528 25 104 4.8 19.3 0.00 0.00 0.00 84 1013.4
20260906074013 24 76 9.7 19.3 0.00 0.00 0.00 84 1013.5
20260906073516 24 73 8.0 12.9 0.00 0.00 0.00 85 1013.3
20260906073029 24 82 6.4 11.3 0.00 0.00 0.00 86 1013.6
20260906072517 24 112 8.0 11.3 0.00 0.00 0.00 86 1013.3
20260906072016 23 73 8.0 11.3 0.00 0.00 0.00 88 1013.5
20260906071531 23 68 1.6 3.2 0.00 0.00 0.00 88 1013.2
20260906071018 23 116 0.0 1.6 0.00 0.00 0.00 89 1013.1
20260906070518 23 116 0.0 1.6 0.00 0.00 0.00 89 1013.2
20260906070006 23 116 0.0 1.6 0.00 0.00 0.00 90 1013.1
20260906065504 23 116 0.0 1.6 0.00 0.00 0.00 91 1013.1
20260906065004 23 117 0.0 1.6 0.00 0.00 0.00 91 1013.1
20260906064507 23 117 0.0 1.6 0.00 0.00 0.00 91 1013.1
20260906064006 23 117 0.0 1.6 0.00 0.00 0.00 91 1013.1
20260906063503 23 117 0.0 1.6 0.00 0.00 0.00 91 1013.1
20260906063003 23 117 0.0 1.6 0.00 0.00 0.00 90 1013.0
20260906062504 23 84 0.0 1.6 0.00 0.00 0.00 89 1013.0
20260906062005 23 84 0.0 3.2 0.00 0.00 0.00 90 1013.0
20260906061504 23 84 1.6 3.2 0.00 0.00 0.00 90 1013.0
20260906061004 23 99 1.6 3.2 0.00 0.00 0.00 90 1012.9
20260906060507 23 108 1.6 3.2 0.00 0.00 0.00 88 1012.9
20260906060006 24 311 0.0 0.0 0.00 0.00 0.00 87 1012.8
20260906055506 24 311 0.0 0.0 0.00 0.00 0.00 87 1012.7
20260906055004 24 311 0.0 0.0 0.00 0.00 0.00 87 1012.7
20260906054506 24 311 0.0 0.0 0.00 0.00 0.00 87 1012.6
20260906054004 25 311 0.0 0.0 0.00 0.00 0.00 87 1012.6
20260906053507 25 311 0.0 0.0 0.00 0.00 0.00 87 1012.6
20260906053005 25 311 0.0 0.0 0.00 0.00 0.00 86 1012.7
20260906052504 25 311 0.0 0.0 0.00 0.00 0.00 86 1012.8
20260906052005 25 311 0.0 0.0 0.00 0.00 0.00 86 1012.9
20260906051506 25 311 0.0 0.0 0.00 0.00 0.00 85 1012.9
20260906051004 25 311 0.0 0.0 0.00 0.00 0.00 85 1013.0
20260906050505 25 311 0.0 1.6 0.00 0.00 0.00 85 1013.0
20260906050009 25 310 0.0 1.6 0.00 0.00 0.00 85 1013.1
20260906045504 25 8 0.0 1.6 0.00 0.00 0.00 84 1013.1
20260906045008 25 8 0.0 3.2 0.00 0.00 0.00 84 1013.2
20260906044510 25 8 1.6 3.2 0.00 0.00 0.00 84 1013.2
20260906044008 25 8 0.0 3.2 0.00 0.00 0.00 84 1013.1
20260906043504 25 8 0.0 3.2 0.00 0.00 0.00 84 1013.2
20260906043009 25 316 0.0 1.6 0.00 0.00 0.00 84 1013.2
20260906042504 25 316 0.0 1.6 0.00 0.00 0.00 84 1013.2
20260906042005 25 316 0.0 1.6 0.00 0.00 0.00 84 1013.2
20260906041509 25 316 0.0 1.6 0.00 0.00 0.00 84 1013.3
20260906041008 25 283 1.6 1.6 0.00 0.00 0.00 84 1013.3
20260906040504 25 283 0.0 1.6 0.00 0.00 0.00 84 1013.2
20260906040009 25 283 0.0 1.6 0.00 0.00 0.00 85 1013.2
20260906035504 25 282 0.0 1.6 0.00 0.00 0.00 86 1013.3
20260906035006 25 282 0.0 3.2 0.00 0.00 0.00 86 1013.2
20260906034510 25 282 0.0 3.2 0.00 0.00 0.00 86 1013.3
20260906034004 25 115 0.0 3.2 0.00 0.00 0.00 86 1013.3
20260906033505 25 115 0.0 3.2 0.00 0.00 0.00 85 1013.4
20260906033018 26 30 0.0 3.2 0.00 0.00 0.00 84 1013.3
20260906032504 25 20 0.0 11.3 0.00 0.00 0.00 84 1013.3
20260906032007 25 83 0.0 11.3 0.00 0.00 0.00 84 1013.3
20260906031509 25 97 6.4 9.7 0.00 0.00 0.00 84 1013.3
20260906031007 26 335 0.0 1.6 0.00 0.00 0.00 81 1013.1
20260906030506 26 335 0.0 1.6 0.00 0.00 0.00 82 1013.0
20260906030007 26 335 0.0 1.6 0.00 0.00 0.00 82 1012.9
20260906025504 26 335 0.0 1.6 0.00 0.00 0.00 82 1012.9
20260906025004 26 335 0.0 1.6 0.00 0.00 0.00 80 1012.9
20260906024506 26 335 1.6 1.6 0.00 0.00 0.00 79 1012.7
20260906024005 26 334 0.0 1.6 0.00 0.00 0.00 80 1012.6
20260906023505 26 334 0.0 1.6 0.00 0.00 0.00 81 1012.5
20260906023012 26 334 1.6 1.6 0.00 0.00 0.00 81 1012.5
20260906022510 26 23 0.0 1.6 0.00 0.00 0.00 81 1012.5
20260906022006 26 23 0.0 0.0 0.00 0.00 0.00 81 1012.5
20260906021508 26 23 0.0 0.0 0.00 0.00 0.00 81 1012.3
20260906021007 26 24 0.0 1.6 0.00 0.00 0.00 80 1012.3
20260906020506 26 24 0.0 1.6 0.00 0.00 0.00 80 1012.2
20260906020011 26 24 1.6 1.6 0.00 0.00 0.00 79 1012.0
20260906015505 27 352 0.0 1.6 0.00 0.00 0.00 76 1011.9
20260906015007 27 352 0.0 1.6 0.00 0.00 0.00 76 1011.9
20260906014509 27 352 0.0 1.6 0.00 0.00 0.00 76 1011.9
20260906014004 27 352 0.0 1.6 0.00 0.00 0.00 76 1012.0
20260906013504 27 352 0.0 0.0 0.00 0.00 0.00 76 1012.1
20260906013010 27 352 0.0 0.0 0.00 0.00 0.00 77 1012.1
20260906012507 27 352 0.0 0.0 0.00 0.00 0.00 76 1011.9
20260906012005 27 352 0.0 1.6 0.00 0.00 0.00 76 1012.0
20260906011512 27 352 0.0 1.6 0.00 0.00 0.00 75 1011.9
20260906011007 27 352 0.0 0.0 0.00 0.00 0.00 75 1011.9
20260906010506 28 352 0.0 0.0 0.00 0.00 0.00 74 1011.9
20260906010010 28 352 0.0 1.6 0.00 0.00 0.00 73 1011.9
20260906005504 28 352 0.0 1.6 0.00 0.00 0.00 73 1011.9
20260906005007 28 352 0.0 1.6 0.00 0.00 0.00 72 1011.9
20260906004516 28 352 1.6 1.6 0.00 0.00 0.00 70 1011.9
20260906004005 28 352 1.6 1.6 0.00 0.00 0.00 69 1011.8
20260906003506 29 352 1.6 1.6 0.00 0.00 0.00 68 1011.8
20260906003008 29 352 1.6 1.6 0.00 0.00 0.00 67 1011.8
20260906002503 29 352 0.0 1.6 0.00 0.00 0.00 67 1011.8
20260906002004 30 352 0.0 1.6 0.00 0.00 0.00 66 1011.7
20260906001517 30 352 0.0 0.0 0.00 0.00 0.00 65 1011.6
20260906001005 30 352 0.0 0.0 0.00 0.00 0.00 64 1011.7
20260906000505 30 352 0.0 1.6 0.00 0.00 0.00 64 1011.8
20260906000034 31 352 0.0 1.6 0.00 0.00 0.00 63 1011.9
20260905235509 31 352 0.0 1.6 0.00 0.00 0.00 62 1011.9
20260905235013 31 352 0.0 1.6 0.00 0.00 0.00 61 1012.0
20260905234513 32 352 0.0 1.6 0.00 0.00 0.00 62 1012.0
20260905234008 32 352 0.0 1.6 0.00 0.00 0.00 58 1012.1
20260905233508 32 352 1.6 1.6 0.00 0.00 0.00 58 1012.0
20260905233014 33 352 1.6 1.6 0.00 0.00 0.00 56 1011.9
20260905232507 33 352 0.0 1.6 0.00 0.00 0.00 55 1012.0
20260905232008 34 352 1.6 1.6 0.00 0.00 0.00 51 1011.9
20260905231510 35 352 0.0 0.0 0.00 0.00 0.00 53 1011.8
20260905231004 35 353 0.0 1.6 0.00 0.00 0.00 49 1011.8
20260905230504 35 353 0.0 1.6 0.00 0.00 0.00 50 1011.9
20260905230015 35 353 0.0 1.6 0.00 0.00 0.00 49 1011.7
20260905225511 35 351 0.0 3.2 0.00 0.00 0.00 48 1011.7
20260905225008 35 351 0.0 3.2 0.00 0.00 0.00 51 1011.7
20260905224517 35 355 1.6 1.6 0.00 0.00 0.00 47 1011.7
20260905224005 35 356 0.0 3.2 0.00 0.00 0.00 47 1011.8
20260905223505 35 343 0.0 4.8 0.00 0.00 0.00 50 1011.9
20260905223016 35 358 1.6 4.8 0.00 0.00 0.00 47 1011.9
20260905222509 35 26 1.6 4.8 0.00 0.00 0.00 50 1012.0
20260905222009 35 30 0.0 3.2 0.00 0.00 0.00 46 1011.9
20260905221516 36 85 1.6 3.2 0.00 0.00 0.00 45 1012.0
20260905221008 35 44 0.0 3.2 0.00 0.00 0.00 46 1012.0
20260905220508 35 325 1.6 4.8 0.00 0.00 0.00 48 1012.0
20260905220013 35 55 1.6 4.8 0.00 0.00 0.00 44 1012.0
20260905215506 35 46 0.0 8.0 0.00 0.00 0.00 47 1012.0
20260905215010 35 349 0.0 8.0 0.00 0.00 0.00 48 1012.1
20260905214519 35 333 1.6 3.2 0.00 0.00 0.00 48 1012.1
20260905214010 35 26 0.0 4.8 0.00 0.00 0.00 49 1012.1
20260905213509 35 26 1.6 4.8 0.00 0.00 0.00 48 1012.1
20260905213015 35 110 1.6 4.8 0.00 0.00 0.00 47 1012.1
20260905212507 35 42 1.6 4.8 0.00 0.00 0.00 47 1012.1
20260905212008 35 300 1.6 6.4 0.00 0.00 0.00 51 1012.2
20260905211516 35 297 1.6 6.4 0.00 0.00 0.00 47 1012.2
20260905211011 36 311 1.6 8.0 0.00 0.00 0.00 46 1012.2
20260905210512 36 151 4.8 8.0 0.00 0.00 0.00 44 1012.1
20260905210018 36 75 1.6 8.0 0.00 0.00 0.00 47 1012.1
20260905205509 36 91 4.8 8.0 0.00 0.00 0.00 45 1012.2
20260905205011 36 118 0.0 8.0 0.00 0.00 0.00 47 1012.3
20260905204510 35 43 3.2 9.7 0.00 0.00 0.00 48 1012.4
20260905204007 35 127 4.8 9.7 0.00 0.00 0.00 46 1012.4
20260905203508 35 79 3.2 4.8 0.00 0.00 0.00 48 1012.5
20260905203019 35 321 1.6 3.2 0.00 0.00 0.00 48 1012.6
20260905202516 35 99 0.0 3.2 0.00 0.00 0.00 54 1012.7
20260905202010 35 99 1.6 4.8 0.00 0.00 0.00 48 1012.8
20260905201518 35 25 1.6 12.9 0.00 0.00 0.00 48 1012.9
20260905201009 36 63 3.2 12.9 0.00 0.00 0.00 48 1012.9
20260905200510 36 335 6.4 12.9 0.00 0.00 0.00 47 1012.9
20260905200027 36 111 3.2 9.7 0.00 0.00 0.00 47 1013.1
20260905195509 36 85 3.2 9.7 0.00 0.00 0.00 46 1013.1
20260905195006 36 124 4.8 9.7 0.00 0.00 0.00 52 1013.2
20260905194508 35 351 3.2 8.0 0.00 0.00 0.00 47 1013.2
20260905194006 35 76 4.8 9.7 0.00 0.00 0.00 49 1013.3
20260905193505 36 61 4.8 12.9 0.00 0.00 0.00 49 1013.4
20260905193011 36 60 4.8 12.9 0.00 0.00 0.00 48 1013.5
20260905192508 36 300 3.2 9.7 0.00 0.00 0.00 47 1013.5
20260905192011 36 217 3.2 9.7 0.00 0.00 0.00 50 1013.6
20260905191519 35 84 3.2 11.3 0.00 0.00 0.00 50 1013.7
20260905191008 35 106 6.4 11.3 0.00 0.00 0.00 49 1013.8
20260905190512 35 58 4.8 9.7 0.00 0.00 0.00 49 1013.8
20260905190024 35 63 3.2 8.0 0.00 0.00 0.00 50 1013.9
20260905185511 35 59 1.6 12.9 0.00 0.00 0.00 51 1014.0
20260905185011 35 351 3.2 12.9 0.00 0.00 0.00 53 1014.0
20260905184542 35 5 3.2 8.0 0.00 0.00 0.00 50 1014.0
20260905184003 35 129 4.8 8.0 0.00 0.00 0.00 51 1014.0
20260905183505 35 8 3.2 9.7 0.00 0.00 0.00 50 1014.1
20260905183029 35 276 1.6 9.7 0.00 0.00 0.00 51 1014.2
20260905182506 35 326 3.2 11.3 0.00 0.00 0.00 51 1014.3
20260905182004 35 9 6.4 11.3 0.00 0.00 0.00 48 1014.2
20260905181516 35 47 3.2 6.4 0.00 0.00 0.00 48 1014.3
20260905181006 35 108 1.6 6.4 0.00 0.00 0.00 52 1014.3
20260905180512 35 359 1.6 9.7 0.00 0.00 0.00 54 1014.4
20260905180021 35 124 4.8 11.3 0.00 0.00 0.00 51 1014.6
20260905175509 35 111 1.6 12.9 0.00 0.00 0.00 52 1014.6
20260905175012 35 86 8.0 12.9 0.00 0.00 0.00 51 1014.6
20260905174526 35 135 4.8 11.3 0.00 0.00 0.00 50 1014.7
20260905174012 34 96 3.2 12.9 0.00 0.00 0.00 51 1014.7
20260905173512 34 117 8.0 12.9 0.00 0.00 0.00 49 1014.7
20260905173025 34 91 6.4 12.9 0.00 0.00 0.00 51 1014.7
20260905172504 34 147 3.2 8.0 0.00 0.00 0.00 49 1014.8
20260905172004 34 88 1.6 9.7 0.00 0.00 0.00 48 1014.9
20260905171509 34 7 4.8 11.3 0.00 0.00 0.00 48 1014.9
20260905171007 34 86 6.4 11.3 0.00 0.00 0.00 49 1015.0
20260905170508 34 342 1.6 4.8 0.00 0.00 0.00 53 1015.0
20260905170017 33 164 1.6 6.4 0.00 0.00 0.00 51 1015.0
20260905165508 33 72 3.2 8.0 0.00 0.00 0.00 54 1015.1
20260905165009 33 76 4.8 8.0 0.00 0.00 0.00 52 1015.2
20260905164525 33 58 4.8 8.0 0.00 0.00 0.00 55 1015.3
20260905164011 33 141 6.4 9.7 0.00 0.00 0.00 54 1015.3
20260905163514 33 102 6.4 9.7 0.00 0.00 0.00 51 1015.3
20260905163028 33 6 1.6 6.4 0.00 0.00 0.00 54 1015.3
20260905162515 33 297 4.8 12.9 0.00 0.00 0.00 55 1015.4
20260905162015 33 110 6.4 12.9 0.00 0.00 0.00 53 1015.5
20260905161524 33 277 1.6 4.8 0.00 0.00 0.00 57 1015.5
20260905161014 33 221 1.6 4.8 0.00 0.00 0.00 56 1015.6
20260905160505 33 105 1.6 6.4 0.00 0.00 0.00 58 1015.7
20260905160009 32 72 3.2 6.4 0.00 0.00 0.00 56 1015.7
20260905155508 32 261 1.6 4.8 0.00 0.00 0.00 57 1015.8
20260905155008 32 184 0.0 9.7 0.00 0.00 0.00 60 1015.8
20260905154517 32 229 1.6 12.9 0.00 0.00 0.00 59 1015.8
20260905154010 32 342 3.2 12.9 0.00 0.00 0.00 62 1015.8
20260905153509 32 336 3.2 9.7 0.00 0.00 0.00 60 1015.8
20260905153024 32 96 1.6 4.8 0.00 0.00 0.00 62 1015.8
20260905152513 32 298 1.6 4.8 0.00 0.00 0.00 61 1015.8
20260905152014 31 109 1.6 6.4 0.00 0.00 0.00 63 1015.8
20260905151530 31 263 3.2 6.4 0.00 0.00 0.00 62 1015.8
20260905151017 31 359 1.6 6.4 0.00 0.00 0.00 63 1015.8
20260905150521 31 292 3.2 6.4 0.00 0.00 0.00 65 1015.7
20260905150027 31 338 3.2 6.4 0.00 0.00 0.00 63 1015.8
20260905145516 31 299 1.6 4.8 0.00 0.00 0.00 64 1015.8
20260905145003 30 72 1.6 4.8 0.00 0.00 0.00 65 1015.9
20260905144510 30 1 3.2 4.8 0.00 0.00 0.00 70 1015.9
20260905144008 30 103 1.6 4.8 0.00 0.00 0.00 65 1015.9
20260905143512 30 97 1.6 4.8 0.00 0.00 0.00 67 1016.0
20260905143019 30 82 1.6 4.8 0.00 0.00 0.00 68 1016.0
20260905142512 29 347 1.6 4.8 0.00 0.00 0.00 67 1015.9
20260905142010 29 330 0.0 4.8 0.00 0.00 0.00 71 1015.9
20260905141528 29 25 1.6 4.8 0.00 0.00 0.00 69 1015.8
20260905141015 28 94 1.6 4.8 0.00 0.00 0.00 72 1016.0
20260905140514 28 77 1.6 4.8 0.00 0.00 0.00 72 1016.0
20260905140031 28 75 1.6 4.8 0.00 0.00 0.00 74 1016.0
20260905135516 28 90 3.2 4.8 0.00 0.00 0.00 74 1016.1
20260905135015 27 96 1.6 4.8 0.00 0.00 0.00 73 1016.0
20260905134526 27 102 1.6 3.2 0.00 0.00 0.00 74 1016.0
20260905134014 27 97 1.6 3.2 0.00 0.00 0.00 76 1016.0
20260905133506 27 117 1.6 3.2 0.00 0.00 0.00 75 1016.0
20260905133033 27 118 1.6 1.6 0.00 0.00 0.00 76 1016.0
20260905132511 27 113 0.0 1.6 0.00 0.00 0.00 76 1015.9
20260905132010 26 113 0.0 1.6 0.00 0.00 0.00 76 1015.8
20260905131524 26 113 1.6 1.6 0.00 0.00 0.00 76 1015.9
20260905131012 27 95 1.6 1.6 0.00 0.00 0.00 77 1016.0
20260905130514 27 1 0.0 1.6 0.00 0.00 0.00 77 1016.0
20260905130029 26 1 0.0 1.6 0.00 0.00 0.00 78 1016.1
20260905125515 26 1 0.0 1.6 0.00 0.00 0.00 81 1016.1
20260905125016 25 1 0.0 1.6 0.00 0.00 0.00 83 1016.1
20260905124531 25 1 0.0 1.6 0.00 0.00 0.00 85 1016.1
20260905124019 24 1 0.0 0.0 0.00 0.00 0.00 88 1016.0
20260905123516 23 1 0.0 0.0 0.00 0.00 0.00 88 1015.9
20260905123031 23 1 0.0 0.0 0.00 0.00 0.00 89 1015.8